Location: Caixon
(43.4106°N, 0.0273°E)
Time: 16:16:46
(UTC+00:00)

Cosmos 1461 - Pass Details

Date: 16 October 2021
Orbit: 522 x 639 km, 65.0° (Epoch: 28 November)

Event Time Altitude Azimuth Distance (km) Brightness Sun altitude
Exits shadow 04:51:28 29° 260° (W) 1,078 3.7 -15.9°
Maximum altitude 04:53:05 42° 309° (NW) 834 3.4 -15.6°
Drops below altitude 10° 04:57:06 10° 22° (NNE) 1,872 5.8 -14.9°
Sets 04:59:23 0° 29° (NNE) 2,752 6.8 -14.5°
